Date String (YYYY-MM-DD hh:mm:ss) UTC,Instrument flags,Ambient pressure (hPa),Sample flow (lpm),Bypass flow (lpm),Sample temperature (°C),Ambient temperature (°C),ASC tube jacket temperature (°C),LED temperature (°C),Box temperature (°C),Sample RH (%),Span deviation,Mass concentration (μg/m³),Mass concentration (μg/m³),Mass concentration (μg/m³)
DateTimeUTC,F1_M11,P_M11,Q1_M11,Q2_M11,T1_M11,T2_M11,T3_M11,T4_M11,T5_M11,U1_M11,ZSPAN_M11,X0_M11,X2_M11,X1_M11
2022-01-31 23:00:00,,0814.2,4.99,0.00,25.4,24.8,00.0,34.3,27.3,04.1,0000.0,0001.33,0000.60,0000.47
2022-01-31 23:01:00,,0814.2,5.00,0.00,25.5,24.8,00.0,34.3,27.3,03.9,0000.0,0002.24,0000.59,0000.47
2022-01-31 23:02:00,,0814.2,5.00,0.00,25.5,24.8,00.0,34.3,27.3,03.9,0000.0,0002.24,0000.59,0000.48
2022-01-31 23:03:00,,0814.0,5.00,0.00,25.5,24.8,00.0,34.3,27.3,04.1,0000.0,0002.22,0000.60,0000.49
2022-01-31 23:04:00,,0813.9,4.99,0.00,25.5,24.8,00.0,34.3,27.3,03.9,0000.0,0002.60,0000.62,0000.51
2022-01-31 23:05:00,,0813.9,5.00,0.00,25.5,24.8,00.0,34.4,27.3,03.8,0000.0,0003.47,0000.64,0000.52
2022-01-31 23:06:00,,0814.0,4.98,0.00,25.5,24.8,00.0,34.4,27.3,03.8,0000.0,0003.48,0000.65,0000.53
2022-01-31 23:07:00,,0814.2,5.01,0.00,25.5,24.8,00.0,34.4,27.3,03.7,0000.0,0003.55,0000.67,0000.53
2022-01-31 23:08:00,,0814.2,5.00,0.00,25.5,24.8,00.0,34.4,27.3,03.7,0000.0,0003.57,0000.69,0000.54
2022-01-31 23:09:00,,0814.3,4.99,0.00,25.5,24.8,00.0,34.4,27.4,03.9,0000.0,0003.56,0000.68,0000.54
2022-01-31 23:10:00,,0814.0,5.02,0.00,25.6,24.9,00.0,34.4,27.4,04.1,0000.0,0003.54,0000.69,0000.55
2022-01-31 23:11:00,,0814.0,5.00,0.00,25.6,24.8,00.0,34.4,27.3,03.7,0000.0,0003.03,0000.68,0000.54
2022-01-31 23:12:00,,0814.0,5.01,0.00,25.6,24.9,00.0,34.4,27.4,03.7,0000.0,0002.11,0000.66,0000.53
2022-01-31 23:13:00,,0813.9,4.99,0.00,25.6,24.9,00.0,34.5,27.4,04.0,0000.0,0002.12,0000.67,0000.54
2022-01-31 23:14:00,,0813.9,5.01,0.00,25.6,24.9,00.0,34.5,27.4,03.7,0000.0,0002.10,0000.67,0000.53
2022-01-31 23:15:00,,0814.2,5.01,0.00,25.6,24.9,00.0,34.5,27.4,04.0,0000.0,0001.73,0000.66,0000.53
2022-01-31 23:16:00,,0814.1,5.00,0.00,25.6,24.9,00.0,34.5,27.4,04.3,0000.0,0000.87,0000.65,0000.54
2022-01-31 23:17:00,,0813.7,5.00,0.00,25.6,24.9,00.0,34.5,27.4,04.2,0000.0,0000.87,0000.64,0000.53
2022-01-31 23:18:00,,0813.9,4.99,0.00,25.6,24.9,00.0,34.5,27.4,03.9,0000.0,0000.80,0000.61,0000.51
2022-01-31 23:19:00,,0813.7,5.02,0.00,25.6,24.9,00.0,34.5,27.4,04.0,0000.0,0000.79,0000.58,0000.50
2022-01-31 23:20:00,,0813.7,4.99,0.00,25.6,24.9,00.0,34.5,27.4,04.3,0000.0,0000.84,0000.57,0000.50
2022-01-31 23:21:00,,0813.9,5.01,0.00,25.6,24.9,00.0,34.5,27.4,03.9,0000.0,0000.82,0000.56,0000.49
2022-01-31 23:22:00,,0813.6,4.99,0.00,25.6,24.9,00.0,34.5,27.3,03.7,0000.0,0000.84,0000.54,0000.47
2022-01-31 23:23:00,,0813.5,5.01,0.00,25.6,24.9,00.0,34.5,27.4,03.7,0000.0,0000.87,0000.53,0000.46
2022-01-31 23:24:00,,0813.5,4.99,0.00,25.6,24.8,00.0,34.5,27.4,03.6,0000.0,0000.83,0000.50,0000.45
2022-01-31 23:25:00,,0813.7,5.01,0.00,25.6,24.8,00.0,34.5,27.3,03.7,0000.0,0000.81,0000.49,0000.43
2022-01-31 23:26:00,,0813.9,5.00,0.00,25.5,24.7,00.0,34.5,27.3,03.8,0000.0,0000.81,0000.48,0000.42
2022-01-31 23:27:00,,0813.9,5.00,0.00,25.5,24.8,00.0,34.5,27.3,04.1,0000.0,0000.79,0000.46,0000.40
2022-01-31 23:28:00,,0814.0,5.00,0.00,25.5,24.7,00.0,34.5,27.2,04.0,0000.0,0000.75,0000.43,0000.39
2022-01-31 23:29:00,,0813.4,4.98,0.00,25.5,24.8,00.0,34.5,27.2,03.9,0000.0,0000.75,0000.44,0000.38
2022-01-31 23:30:00,,0813.4,5.02,0.00,25.5,24.8,00.0,34.5,27.3,03.8,0000.0,0000.72,0000.44,0000.38
2022-01-31 23:31:00,,0813.3,4.99,0.00,25.5,24.7,00.0,34.5,27.3,03.7,0000.0,0000.65,0000.43,0000.38
2022-01-31 23:32:00,,0813.3,4.99,0.00,25.5,24.7,00.0,34.5,27.3,03.7,0000.0,0000.64,0000.43,0000.37
2022-01-31 23:33:00,,0813.5,5.00,0.00,25.4,24.7,00.0,34.5,27.2,03.7,0000.0,0000.58,0000.42,0000.37
2022-01-31 23:34:00,,0813.6,5.01,0.00,25.4,24.7,00.0,34.5,27.2,03.6,0000.0,0000.54,0000.42,0000.38
2022-01-31 23:35:00,,0813.5,4.99,0.00,25.4,24.7,00.0,34.5,27.3,03.9,0000.0,0000.55,0000.43,0000.38
2022-01-31 23:36:00,,0813.5,5.00,0.00,25.5,24.7,00.0,34.5,27.2,03.8,0000.0,0000.58,0000.44,0000.38
2022-01-31 23:37:00,,0813.5,5.00,0.00,25.5,24.7,00.0,34.5,27.3,03.8,0000.0,0000.57,0000.43,0000.37
2022-01-31 23:38:00,,0813.5,5.00,0.00,25.5,24.8,00.0,34.5,27.3,03.9,0000.0,0000.57,0000.43,0000.38
2022-01-31 23:39:00,,0813.5,4.99,0.00,25.5,24.8,00.0,34.5,27.3,03.8,0000.0,0000.61,0000.45,0000.38
2022-01-31 23:40:00,,0813.6,5.00,0.00,25.5,24.7,00.0,34.5,27.3,03.7,0000.0,0000.66,0000.46,0000.37
2022-01-31 23:41:00,,0813.8,5.00,0.00,25.5,24.8,00.0,34.5,27.2,03.8,0000.0,0000.69,0000.47,0000.37
2022-01-31 23:42:00,,0813.4,5.00,0.00,25.5,24.8,00.0,34.5,27.2,03.8,0000.0,0000.68,0000.46,0000.37
2022-01-31 23:43:00,,0813.5,4.99,0.00,25.5,24.8,00.0,34.5,27.3,03.8,0000.0,0000.68,0000.46,0000.37
2022-01-31 23:44:00,,0813.5,5.01,0.00,25.5,24.8,00.0,34.5,27.3,03.8,0000.0,0000.69,0000.47,0000.37
2022-01-31 23:45:00,,0813.5,5.01,0.00,25.5,24.8,00.0,34.5,27.2,03.7,0000.0,0000.70,0000.48,0000.38
2022-01-31 23:46:00,,0813.4,5.00,0.00,25.5,24.8,00.0,34.5,27.3,03.7,0000.0,0000.72,0000.48,0000.37
2022-01-31 23:47:00,,0813.5,4.99,0.00,25.5,24.8,00.0,34.5,27.3,03.7,0000.0,0000.68,0000.47,0000.37
2022-01-31 23:48:00,,0813.7,5.01,0.00,25.5,24.8,00.0,34.5,27.3,03.7,0000.0,0000.68,0000.46,0000.37
2022-01-31 23:49:00,,0814.1,4.98,0.00,25.5,24.8,00.0,34.5,27.4,03.8,0000.0,0001.98,0000.46,0000.37
2022-01-31 23:50:00,,0814.1,5.01,0.00,25.5,24.8,00.0,34.5,27.4,03.8,0000.0,0001.93,0000.43,0000.36
2022-01-31 23:51:00,,0814.2,4.99,0.00,25.5,24.8,00.0,34.5,27.3,03.9,0000.0,0001.84,0000.40,0000.35
2022-01-31 23:52:00,,0813.9,5.01,0.00,25.5,24.8,00.0,34.5,27.3,04.1,0000.0,0001.88,0000.39,0000.35
2022-01-31 23:53:00,,0813.7,4.99,0.00,25.5,24.8,00.0,34.5,27.3,04.3,0000.0,0003.20,0000.38,0000.35
2022-01-31 23:54:00,,0813.9,5.00,0.00,25.5,24.8,00.0,34.5,27.3,04.2,0000.0,0003.20,0000.38,0000.35
2022-01-31 23:55:00,,0813.7,4.99,0.00,25.4,24.7,00.0,34.5,27.2,04.1,0000.0,0003.21,0000.38,0000.35
2022-01-31 23:56:00,,0813.7,4.99,0.00,25.4,24.7,00.0,34.4,27.2,03.8,0000.0,0003.21,0000.38,0000.36
2022-01-31 23:57:00,,0813.9,5.02,0.00,25.4,24.7,00.0,34.4,27.2,03.9,0000.0,0003.20,0000.38,0000.36
2022-01-31 23:58:00,,0813.8,4.99,0.00,25.4,24.7,00.0,34.4,27.2,03.8,0000.0,0003.33,0000.41,0000.36
2022-01-31 23:59:00,,0813.7,5.01,0.00,25.4,24.6,00.0,34.4,27.2,03.8,0000.0,0003.36,0000.44,0000.36
